Regional Weather Roundup
Issued by NWS

Home | Current Version | Previous Version | Graphics & Text | Print | Product List | Glossary On
Versions: 1 2 3 4 5 6 7 8 9 10 11 12 13 14 15 16 17 18 19 20 21 22 23 24 25 26 27 28 29 30 31 32 33 34 35 36 37 38 39 40 41 42 43 44 45 46 47 48 49 50
000
ASUS43 KOAX 232002
RWRNE

WEATHER ROUNDUP FOR NEBRASKA
NATIONAL WEATHER SERVICE OMAHA NE
300 PM CDT TUE AUG 23 2016

NOTES: SATELLITE DATA IS BEING USED TO AUGMENT CLOUD COVER ABOVE
       12000 FEET.
       "FAIR" INDICATES FEW OR NO CLOUDS BELOW 12,000 FEET WITH NO
       SIGNIFICANT WEATHER AND/OR OBSTRUCTIONS TO VISIBILITY.

  * THESE STATIONS DO NOT REPORT WEATHER SUCH AS RAIN...SNOW OR FOG.

NEZ001>004-019>022-054>056-232100-
NEBRASKA PANHANDLE

CITY           SKY/WX    TMP DP  RH WIND       PRES   REMARKS
SCOTTSBLUFF    SUNNY     88  34  14 NW14G22   29.97S
ALLIANCE       SUNNY     85  36  17 NW15G23   29.95R
CHADRON        SUNNY     88  31  13 NE9G18    29.92S
KIMBALL        SUNNY     84  34  16 N20G28    30.04R
SIDNEY         SUNNY     87  30  13 N18G30    30.01R
$$

NEZ057>060-069>072-079>082-232100-
SOUTHWEST NEBRASKA

CITY           SKY/WX    TMP DP  RH WIND       PRES   REMARKS
NORTH PLATTE   SUNNY     90  61  37 CALM      29.83S HX  90
IMPERIAL       SUNNY     92  34  13 NW16      29.88S
LEXINGTON      SUNNY     87  65  48 SW7       29.83S
MCCOOK         SUNNY     87  65  47 S6        29.83S
OGALLALA       SUNNY     93  30  10 NW20G26   29.89R
$$

NEZ005>010-023>029-035>040-094-232100-
NORTH CENTRAL NEBRASKA

CITY           SKY/WX    TMP DP  RH WIND       PRES   REMARKS
VALENTINE      SUNNY     85  44  23 N16G22    29.83R
AINSWORTH      SUNNY     87  60  40 NW15      29.81R
BROKEN BOW     MOSUNNY   85  67  54 S8G18     29.82S
O`NEILL        PTSUNNY   82  65  56 S14       29.81S
ORD            MOSUNNY   86  66  51 SW15G24   29.80R
THEDFORD       SUNNY     90  52  26 NW15G21   29.85R
$$

NEZ041-046>049-061>064-073>077-083>087-232100-
SOUTH CENTRAL NEBRASKA

CITY           SKY/WX    TMP DP  RH WIND       PRES   REMARKS
GRAND ISLAND   MOSUNNY   89  69  51 S20G26    29.81F HX  93
AURORA         MOSUNNY   87  70  56 S17G25    29.81F HX  91
HASTINGS       MOSUNNY   90  68  48 S14G26    29.81F HX  94
HEBRON         MOSUNNY   87  72  60 S15G22    29.83F HX  93
HOLDREGE       SUNNY     90  62  38 SW12G21   29.82S HX  90
KEARNEY *      MOSUNNY   90  68  48 S17       29.80S HX  93
$$

NEZ011>018-030>034-042>045-232100-
NORTHEAST NEBRASKA

CITY           SKY/WX    TMP DP  RH WIND       PRES   REMARKS
NORFOLK        PTSUNNY   83  70  64 S15G24    29.81F
ALBION         PTSUNNY   84  70  63 S14       29.81F
BLAIR          CLOUDY    79  72  78 SE17G24   29.87S
FREMONT        CLOUDY    83  72  69 SE17G26   29.84F
TEKAMAH        CLOUDY    82  72  71 S17G25    29.84F
WAYNE          CLOUDY    76  73  91 SE12      29.82F
$$

NEZ050>053-065>068-078-088>093-232100-
SOUTHEAST NEBRASKA

CITY           SKY/WX    TMP DP  RH WIND       PRES   REMARKS
LINCOLN        PTSUNNY   88  72  58 S20G28    29.83F HX  94
OMAHA EPPLEY   CLOUDY    81  71  71 S24G30    29.86F
BEATRICE       PTSUNNY   88  73  60 S18       29.85F HX  95
FALLS CITY     CLOUDY    84  73  69 S18G29    29.90F HX  90
NEBRASKA CITY  PTSUNNY   83  74  74 S16G25    29.89F HX  90
PLATTSMOUTH    CLOUDY    81  73  77 SE13G18   29.89F
$$

NEZ044-045-051>053-067-232100-
OMAHA AREA

CITY           SKY/WX    TMP DP  RH WIND       PRES   REMARKS
OMAHA EPPLEY   CLOUDY    81  71  71 S24G30    29.86F
BLAIR          CLOUDY    79  72  78 SE17G24   29.87S
FREMONT        CLOUDY    83  72  69 SE17G26   29.84F
MILLARD        CLOUDY    82  73  74 SE17G23   29.85F
OFFUTT AFB     CLOUDY    82  74  75 SE22G29   29.86F
PLATTSMOUTH    CLOUDY    81  73  77 SE13G18   29.89F
WAHOO          MOCLDY    83  71  67 S20G29    29.84F
$$




USA.gov is the U.S. government's official web portal to all federal, state and local government web resources and services.